Flag for Czech Republic Weather past 2 weeks in Plzen, Czech Republic

Now
47 °F

Overcast.


Feels Like: N/A
Forecast: 41 / 50 °F
Wind: N/A

Location: Kocelovice

Current Time: Oct 23, 2014 at 10:55:52 PM

Latest Report: Oct 23, 2014 at 10:00 PM


Visibility: 8 mi

Pressure: 30.21 "Hg

Humidity: 83%

Dew point: 42 °F

Location of PlzenLocation

Historic Weather in Plzen — Graph

°F

Plzen temperature yesterday

Maximum temperature yesterday: 46 °F (at 12:00 AM)
Minimum temperature yesterday: 37 °F (at 12:00 PM)
Average temperature yesterday: 41 °F

Past Weeks' High & Low Weather Summary

 TemperatureHumidityPressure
High67 °F (Oct 9, 4:00 PM)100% (Oct 9, 1:00 AM)30.31 "Hg (Oct 9, 1:00 AM)
Low37 °F (Oct 22, 12:00 PM)57% (Oct 14, 4:00 PM)29.58 "Hg (Oct 21, 10:00 PM)
Average54 °F89%29.94 "Hg
* Reported Oct 8 9:00 PM — Oct 23 9:00 PM, Plzen, Weather by CustomWeather, © 2014

Note: Actual official high and low records may vary slightly from our data, if they occured in-between our weather recording intervals... More about our weather records

Advertising

Plzen weather history for previous 24 hours

 ConditionsComfort  
Time TempWeatherWind HumidityBarometerVisibility
9:00 PM
Oct 23
47 °FOvercast.N/A84%30.18 "Hg9 mi
8:00 PM48 °FOvercast.2 mph84%30.18 "Hg8 mi
7:00 PM48 °FOvercast.N/A84%30.17 "Hg10 mi
6:00 PM48 °FOvercast.3 mph85%30.16 "Hg10 mi
5:00 PM50 °FOvercast.5 mph79%30.13 "Hg11 mi
4:00 PM51 °FPartly sunny.6 mph76%30.11 "Hg12 mi
3:00 PM50 °FOvercast.6 mph79%30.09 "Hg12 mi
2:00 PM50 °FOvercast.6 mph83%30.07 "Hg11 mi
1:00 PM50 °FPartly sunny.8 mph80%30.06 "Hg11 mi
12:00 PM50 °FOvercast.6 mph82%30.05 "Hg11 mi
11:00 AM49 °FLow clouds.8 mph85%30.03 "Hg10 mi
10:00 AM49 °FLow clouds.7 mph89%30.01 "Hg7 mi
9:00 AM49 °FLight rain. Low clouds.6 mph89%29.98 "Hg10 mi
8:00 AM49 °FLight rain. Low clouds.6 mph89%29.94 "Hg8 mi
7:00 AM48 °FLight rain. Overcast.5 mph90%29.90 "Hg10 mi
6:00 AM48 °FLight rain. Overcast.6 mph90%29.88 "Hg12 mi
5:00 AM48 °FLight rain. Overcast.8 mph89%29.85 "Hg12 mi
4:00 AM47 °FLight rain. Overcast.6 mph90%29.84 "Hg12 mi
3:00 AM44 °FLight rain. Overcast.5 mph95%29.83 "Hg12 mi
2:00 AM42 °FLight rain. Overcast.6 mph97%29.83 "Hg7 mi
1:00 AM41 °FLight rain. Overcast.6 mph96%29.84 "Hg12 mi
12:00 AM40 °FLight rain. Overcast.5 mph97%29.84 "Hg12 mi
11:00 PM
Oct 22
40 °FRain showers. Overcast.6 mph96%29.83 "Hg5 mi
10:00 PM39 °FLight rain. Low clouds.7 mph93%29.83 "Hg7 mi
Weather by CustomWeather, © 2014

See weather overviewHow to use our weather pages